Location: Iesi
(43.5167°N, 13.2333°E)
Time: 01:52:04
(UTC+00:00)

Sich 1 - Pass Details

Date: 08 August 2020
Orbit: 593 x 626 km, 82.5° (Epoch: 19 September)

Event Time Altitude Azimuth Distance (km) Brightness Sun altitude
Exits shadow 19:57:38 - 195° (SSW) 2,600 6.0 -15.8°
Reaches altitude 10° 19:59:09 10° 197° (SSW) 1,991 5.4 -16.0°
Maximum altitude 20:03:32 65° 280° (W) 692 3.5 -16.6°
Drops below altitude 10° 20:07:58 10° 3° (N) 2,011 6.2 -17.2°
Sets 20:10:14 0° 6° (N) 2,922 7.1 -17.5°
